Location: Grand Mazuras
(45.9128°N, 1.7636°E)
Time: 16:58:01
(UTC+00:00)

MOS 1 - Pass Details

Date: 18 April 2021
Orbit: 879 x 890 km, 99.1° (Epoch: 11 May)

Event Time Altitude Azimuth Distance (km) Brightness Sun altitude
Exits shadow 19:38:32 - 155° (SSE) 3,036 6.6 -9.6°
Reaches altitude 10° 19:39:50 10° 154° (SSE) 2,529 6.2 -9.8°
Maximum altitude 19:45:25 71° 72° (ENE) 933 4.3 -10.7°
Drops below altitude 10° 19:51:04 10° 349° (N) 2,548 7.3 -11.5°
Sets 19:53:28 0° 348° (NNW) 3,492 8.1 -11.9°
